When you browse on this site, cookies collect data to enhance your experience and personalize the content and advertising you see.
Visit our Privacy Policy to learn more. By continuing to use the site, you agree to this use of cookies and data.
  • In Portugal
  • List of Countries
  • For 7 days
  • Water Temperature
  • Weather Map
  • Weather Widgets
  • user-avatar
    Login

    Hourly Weather Sylhet

    Today, 2 June, Tuesday

    Time Temperature Precipitation Wind Pressure Humidity
    00:00 +28°C° 0 mm 2 mps 755 mmHg 90%
    01:00 +27°C° 2.2 mm 2 mps 755 mmHg 92%
    02:00 +27°C° 2.2 mm 1 mps 754 mmHg 93%
    03:00 +27°C° 2.2 mm 1 mps 753 mmHg 94%
    04:00 +27°C° 0.9 mm 1 mps 753 mmHg 94%
    05:00 +27°C° 0.9 mm 1 mps 754 mmHg 94%
    06:00 +25°C° 0 mm 0 mps 754 mmHg 94%
    07:00 +29°C° 1 mm 1 mps 754 mmHg 88%
    08:00 +30°C° 1 mm 3 mps 754 mmHg 82%
    09:00 +32°C° 1 mm 4 mps 754 mmHg 76%
    10:00 +33°C° 1.6 mm 4 mps 754 mmHg 73%
    11:00 +34°C° 1.6 mm 4 mps 754 mmHg 70%
    12:00 +35°C° 0 mm 3 mps 755 mmHg 65%
    13:00 +35°C° 0.7 mm 3 mps 754 mmHg 62%
    14:00 +36°C° 0.7 mm 2 mps 753 mmHg 60%
    15:00 +36°C° 0.7 mm 2 mps 753 mmHg 57%
    16:00 +35°C° 0.7 mm 2 mps 752 mmHg 64%
    17:00 +34°C° 0.7 mm 2 mps 752 mmHg 70%
    18:00 +31°C° 0.7 mm 3 mps 752 mmHg 77%
    19:00 +30°C° 0.3 mm 3 mps 753 mmHg 80%
    20:00 +29°C° 0.3 mm 3 mps 753 mmHg 83%
    21:00 +29°C° 0.3 mm 3 mps 753 mmHg 86%
    22:00 +28°C° 0.2 mm 2 mps 753 mmHg 88%
    23:00 +28°C° 0.2 mm 2 mps 753 mmHg 90%

    Tomorrow, 3 June, Wednesday

    Time Temperature Precipitation Wind Pressure Humidity
    00:00 +27°C° 0.2 mm 2 mps 753 mmHg 92%
    01:00 +27°C° 1 mm 2 mps 753 mmHg 93%
    02:00 +27°C° 1 mm 2 mps 753 mmHg 93%
    03:00 +27°C° 1 mm 2 mps 752 mmHg 93%
    04:00 +27°C° 0.9 mm 2 mps 752 mmHg 94%
    05:00 +27°C° 0.9 mm 2 mps 753 mmHg 94%
    06:00 +27°C° 0.9 mm 2 mps 753 mmHg 94%
    07:00 +28°C° 0.6 mm 2 mps 753 mmHg 89%
    08:00 +30°C° 0.6 mm 2 mps 754 mmHg 84%
    09:00 +31°C° 0.6 mm 2 mps 754 mmHg 79%
    10:00 +33°C° 1.2 mm 3 mps 754 mmHg 73%
    11:00 +34°C° 1.2 mm 4 mps 754 mmHg 68%
    12:00 +36°C° 1.2 mm 4 mps 754 mmHg 62%
    13:00 +35°C° 2.1 mm 4 mps 753 mmHg 64%
    14:00 +35°C° 2.1 mm 4 mps 753 mmHg 67%
    15:00 +34°C° 2.1 mm 3 mps 752 mmHg 69%
    16:00 +31°C° 4.7 mm 3 mps 752 mmHg 77%
    17:00 +30°C° 4.7 mm 3 mps 752 mmHg 84%
    18:00 +28°C° 4.7 mm 3 mps 752 mmHg 92%
    19:00 +28°C° 0.9 mm 2 mps 753 mmHg 92%
    20:00 +28°C° 0.9 mm 2 mps 754 mmHg 91%
    21:00 +28°C° 0.9 mm 1 mps 754 mmHg 91%
    22:00 +27°C° 0.1 mm 1 mps 754 mmHg 92%
    23:00 +27°C° 0.1 mm 1 mps 754 mmHg 93%

    Day after tomorrow, 4 June, Thursday

    Time Temperature Precipitation Wind Pressure Humidity
    00:00 +27°C° 0.1 mm 1 mps 753 mmHg 94%
    01:00 +27°C° 0 mm 1 mps 753 mmHg 94%
    02:00 +26°C° 0 mm 1 mps 753 mmHg 94%
    03:00 +26°C° 0 mm 1 mps 753 mmHg 95%
    04:00 +26°C° 0 mm 1 mps 753 mmHg 94%
    05:00 +26°C° 0 mm 1 mps 753 mmHg 93%
    06:00 +27°C° 0 mm 2 mps 753 mmHg 92%
    07:00 +28°C° 0.1 mm 2 mps 753 mmHg 88%
    08:00 +29°C° 0.1 mm 2 mps 754 mmHg 84%
    09:00 +30°C° 0.1 mm 2 mps 754 mmHg 80%
    10:00 +31°C° 0.4 mm 1 mps 754 mmHg 76%
    11:00 +32°C° 0.4 mm 1 mps 753 mmHg 71%
    12:00 +34°C° 0.4 mm 1 mps 753 mmHg 67%
    13:00 +34°C° 1.1 mm 1 mps 752 mmHg 66%
    14:00 +34°C° 1.1 mm 1 mps 752 mmHg 64%
    15:00 +34°C° 1.1 mm 1 mps 751 mmHg 63%
    16:00 +34°C° 0.9 mm 1 mps 751 mmHg 67%
    17:00 +34°C° 0.9 mm 2 mps 751 mmHg 71%
    18:00 +32°C° 0.9 mm 2 mps 751 mmHg 75%
    19:00 +31°C° 1.3 mm 2 mps 752 mmHg 79%
    20:00 +30°C° 1.3 mm 2 mps 753 mmHg 84%
    21:00 +28°C° 1.3 mm 3 mps 753 mmHg 88%
    22:00 +28°C° 0.1 mm 2 mps 753 mmHg 89%
    23:00 +28°C° 0.1 mm 1 mps 753 mmHg 90%

    5 June, Friday

    Time Temperature Precipitation Wind Pressure Humidity
    00:00 +27°C° 0.1 mm 1 mps 753 mmHg 90%
    01:00 +27°C° 0.1 mm 1 mps 753 mmHg 91%
    02:00 +27°C° 0.1 mm 1 mps 753 mmHg 92%
    03:00 +27°C° 0.1 mm 1 mps 752 mmHg 92%
    04:00 +27°C° 0.3 mm 1 mps 753 mmHg 92%
    05:00 +27°C° 0.3 mm 2 mps 753 mmHg 93%
    06:00 +27°C° 0.3 mm 2 mps 753 mmHg 93%
    07:00 +29°C° 0.7 mm 2 mps 753 mmHg 89%
    08:00 +30°C° 0.7 mm 2 mps 753 mmHg 86%
    09:00 +31°C° 0.7 mm 3 mps 753 mmHg 82%
    10:00 +33°C° 2.5 mm 3 mps 753 mmHg 78%
    11:00 +33°C° 2.5 mm 3 mps 753 mmHg 74%
    12:00 +34°C° 2.5 mm 3 mps 753 mmHg 70%
    13:00 +34°C° 2.7 mm 3 mps 752 mmHg 72%
    14:00 +34°C° 2.7 mm 2 mps 752 mmHg 73%
    15:00 +32°C° 2.7 mm 2 mps 751 mmHg 75%
    16:00 +32°C° 2.3 mm 2 mps 751 mmHg 78%
    17:00 +31°C° 2.3 mm 2 mps 751 mmHg 81%
    18:00 +31°C° 2.3 mm 2 mps 751 mmHg 84%
    19:00 +30°C° 1.1 mm 2 mps 751 mmHg 86%
    20:00 +30°C° 1.1 mm 2 mps 752 mmHg 88%
    21:00 +29°C° 1.1 mm 2 mps 752 mmHg 89%
    22:00 +28°C° 2.6 mm 2 mps 752 mmHg 91%
    23:00 +28°C° 2.6 mm 2 mps 752 mmHg 93%

    6 June, Saturday

    Time Temperature Precipitation Wind Pressure Humidity
    00:00 +28°C° 2.6 mm 2 mps 752 mmHg 94%
    01:00 +27°C° 3.3 mm 2 mps 751 mmHg 95%
    02:00 +27°C° 3.3 mm 2 mps 751 mmHg 96%
    03:00 +27°C° 3.3 mm 2 mps 751 mmHg 96%
    04:00 +27°C° 1.4 mm 2 mps 751 mmHg 96%
    05:00 +27°C° 1.4 mm 2 mps 751 mmHg 96%
    06:00 +27°C° 1.4 mm 2 mps 751 mmHg 95%
    07:00 +29°C° 1.3 mm 3 mps 752 mmHg 89%
    08:00 +30°C° 1.3 mm 3 mps 752 mmHg 83%
    09:00 +33°C° 1.3 mm 3 mps 753 mmHg 77%
    10:00 +34°C° 0.6 mm 3 mps 752 mmHg 72%
    11:00 +35°C° 0.6 mm 3 mps 752 mmHg 67%
    12:00 +36°C° 0.6 mm 3 mps 752 mmHg 62%
    13:00 +36°C° 1.9 mm 3 mps 751 mmHg 63%
    14:00 +36°C° 1.9 mm 3 mps 750 mmHg 64%
    15:00 +36°C° 1.9 mm 3 mps 749 mmHg 65%
    16:00 +35°C° 1.5 mm 2 mps 749 mmHg 70%
    17:00 +34°C° 1.5 mm 2 mps 749 mmHg 74%
    18:00 +32°C° 1.5 mm 2 mps 749 mmHg 78%
    19:00 +31°C° 0.7 mm 2 mps 750 mmHg 80%
    20:00 +30°C° 0.7 mm 2 mps 750 mmHg 82%
    21:00 +30°C° 0.7 mm 2 mps 751 mmHg 84%
    22:00 +29°C° 0.7 mm 2 mps 751 mmHg 85%
    23:00 +29°C° 0.7 mm 2 mps 751 mmHg 87%

    7 June, Sunday

    Time Temperature Precipitation Wind Pressure Humidity
    00:00 +28°C° 0.7 mm 2 mps 751 mmHg 89%
    01:00 +28°C° 0.8 mm 2 mps 751 mmHg 90%
    02:00 +28°C° 0.8 mm 2 mps 750 mmHg 91%
    03:00 +28°C° 0.8 mm 2 mps 750 mmHg 92%
    04:00 +28°C° 1.8 mm 2 mps 750 mmHg 92%
    05:00 +28°C° 1.8 mm 3 mps 751 mmHg 92%
    06:00 +28°C° 1.8 mm 3 mps 751 mmHg 92%
    07:00 +29°C° 0.6 mm 3 mps 751 mmHg 88%
    08:00 +30°C° 0.6 mm 3 mps 751 mmHg 84%
    09:00 +30°C° 0.6 mm 3 mps 752 mmHg 81%
    10:00 +33°C° 0 mm 3 mps 751 mmHg 74%
    11:00 +34°C° 0 mm 2 mps 751 mmHg 68%
    12:00 +35°C° 0 mm 2 mps 751 mmHg 62%
    13:00 +36°C° 0.2 mm 2 mps 750 mmHg 60%
    14:00 +37°C° 0.2 mm 2 mps 750 mmHg 57%
    15:00 +37°C° 0.2 mm 2 mps 749 mmHg 55%
    16:00 +37°C° 0.2 mm 2 mps 749 mmHg 60%
    17:00 +36°C° 0.2 mm 2 mps 749 mmHg 64%
    18:00 +34°C° 0.2 mm 1 mps 749 mmHg 69%
    19:00 +33°C° 0.8 mm 1 mps 749 mmHg 73%
    20:00 +31°C° 0.8 mm 2 mps 749 mmHg 78%
    21:00 +30°C° 0.8 mm 2 mps 750 mmHg 82%
    22:00 +29°C° 1.4 mm 2 mps 750 mmHg 84%
    23:00 +29°C° 1.4 mm 2 mps 750 mmHg 87%
    Show more